Location: ?
(35.4554°N, 139.3092°E)
Time: 22:36:38
(UTC+00:00)

Cosmos 1378 Rocket - Pass Details

Date: 21 April 2021
Orbit: 600 x 628 km, 82.5° (Epoch: 10 May)

Event Time Altitude Azimuth Distance (km) Brightness Sun altitude
Exits shadow 18:53:14 21° 231° (SW) 1,388 4.7 -13.9°
Maximum altitude 18:55:26 34° 281° (W) 1,023 4.3 -13.5°
Drops below altitude 10° 18:59:28 10° 347° (NNW) 1,988 6.3 -12.7°
Sets 19:01:52 0° 357° (N) 2,893 7.3 -12.3°
